Home > Weather > Fürstenfeld > Past weeks

Flag for Austria Weather for the Past 2 Weeks in Fürstenfeld, Styria, Austria

Now
46 °F

Partly sunny.


Feels Like: 45 °F
Forecast: 49 / 56 °F
Wind: 3 mph from West

Location: Graz-Thalerhof-Flughafen

Current Time: May 3, 2016 at 7:58:25 AM

Latest Report: May 3, 2016 at 6:50 AM


Visibility: N/A

Pressure: 29.95 "Hg

Humidity: 100%

Dew Point: 46 °F

Location of FürstenfeldLocation

Historic Weather in Fürstenfeld — Graph

°F

Fürstenfeld Temperature Yesterday

Maximum temperature yesterday: 57 °F (at 5:50 PM)
Minimum temperature yesterday: 48 °F (at 10:50 PM)
Average temperature yesterday: 52 °F

High & Low Weather Summary for the Past Weeks

 TemperatureHumidityPressure
High70 °F (Apr 22, 1:50 PM)100% (Apr 19, 2:50 AM)30.36 "Hg (Apr 19, 2:50 AM)
Low27 °F (Apr 26, 4:50 AM)24% (Apr 25, 5:20 PM)29.56 "Hg (Apr 23, 4:50 PM)
Average48 °F70%29.97 "Hg
* Reported Apr 18 6:20 AM — May 3 6:20 AM, Fürstenfeld, Weather by CustomWeather, © 2016

Note: Actual official high and low records may vary slightly from our data, if they occured in-between our weather recording intervals... More about our weather records

Advertising

Fürstenfeld Weather History for the Previous 24 Hours

Scroll right to see more
 ConditionsComfort  
Time TempWeatherWind HumidityBarometerVisibility
6:20 AM
Tue, May 3
46 °FPassing clouds.2 mph93%29.95 "HgN/A
5:50 AM45 °FPassing clouds.2 mph100%29.95 "HgN/A
4:50 AM45 °FFog.1 mph100%29.95 "Hg4 mi
4:20 AM46 °FFog.1 mph100%29.95 "Hg4 mi
3:50 AM45 °FFog.2 mph100%29.95 "Hg2 mi
2:50 AM43 °FFog.2 mph100%29.98 "Hg0 mi
2:20 AM45 °FRain. Overcast.1 mph100%29.98 "Hg3 mi
1:50 AM46 °FRain. Overcast.1 mph93%29.98 "Hg1 mi
1:20 AM48 °FFog.3 mph94%30.01 "Hg6 mi
12:50 AM46 °FCool.2 mph100%29.98 "Hg1 mi
11:50 PM
Mon, May 2
48 °FPassing clouds.3 mph100%29.98 "Hg5 mi
11:20 PM48 °FFog.1 mph100%29.98 "HgN/A
10:50 PM48 °FPartly cloudy.1 mph94%29.98 "HgN/A
10:20 PM50 °FPartly cloudy.6 mph88%29.98 "HgN/A
9:50 PM52 °FPartly cloudy.5 mph88%29.98 "HgN/A
9:20 PM52 °FPartly cloudy.2 mph88%29.98 "HgN/A
8:50 PM52 °FBroken clouds.7 mph88%29.98 "HgN/A
8:20 PM52 °FBroken clouds.10 mph88%29.98 "HgN/A
7:50 PM52 °FSprinkles. Broken clouds.12 mph88%29.98 "HgN/A
7:20 PM54 °FSprinkles. Broken clouds.2 mph94%29.98 "HgN/A
6:50 PM55 °FSprinkles. Broken clouds.3 mph88%29.98 "HgN/A
6:20 PM55 °FBroken clouds.5 mph88%29.98 "HgN/A
5:50 PM57 °FBroken clouds.1 mph82%29.98 "HgN/A
5:20 PM54 °FPartly sunny.2 mph94%29.98 "HgN/A
4:50 PM54 °FPartly sunny.2 mph88%30.01 "HgN/A
4:20 PM54 °FPartly sunny.5 mph88%30.01 "HgN/A
3:50 PM52 °FPartly sunny.3 mph100%30.01 "HgN/A
3:20 PM52 °FLight rain. Partly sunny.3 mph94%30.01 "HgN/A
2:50 PM52 °FLight rain. Partly sunny.5 mph94%30.04 "HgN/A
2:20 PM52 °FLight rain. Partly sunny.7 mph94%30.04 "HgN/A
1:50 PM54 °FLight rain. Partly sunny.6 mph88%30.04 "HgN/A
1:20 PM54 °FLight rain. Partly sunny.5 mph88%30.04 "HgN/A
12:50 PM54 °FLight rain. Partly sunny.6 mph88%30.04 "HgN/A
12:20 PM54 °FLight rain. Partly sunny.3 mph88%30.04 "HgN/A
11:50 AM54 °FLight rain. Low clouds.5 mph88%30.07 "HgN/A
11:20 AM54 °FLight rain. Overcast.6 mph88%30.07 "HgN/A
10:50 AM54 °FLight rain. Overcast.8 mph88%30.07 "HgN/A
10:20 AM52 °FLight rain. Overcast.10 mph94%30.04 "HgN/A
9:50 AM52 °FLight rain. Overcast.10 mph94%30.04 "HgN/A
9:20 AM52 °FLight rain. Overcast.12 mph88%30.04 "HgN/A
8:50 AM52 °FLight rain. Overcast.10 mph88%30.04 "HgN/A
8:20 AM52 °FLight rain. Overcast.8 mph88%30.04 "HgN/A
Weather by CustomWeather, © 2016

See weather overviewHow to use our weather pages